TimeCDT,TemperatureF,Dew PointF,Humidity,Sea Level PressureIn,VisibilityMPH,Wind Direction,Wind SpeedMPH,Gust SpeedMPH,PrecipitationIn,Events,Conditions,WindDirDegrees,DateUTC
12:15 AM,68.9,68.9,100,29.98,10.0,East,5.8,-,N/A,,Clear,90,2012-10-24 05:15:00
12:35 AM,68.5,68.5,100,29.97,10.0,East,5.8,-,N/A,,Clear,100,2012-10-24 05:35:00
12:55 AM,68.4,68.4,100,29.97,10.0,ESE,4.6,-,N/A,,Clear,110,2012-10-24 05:55:00
1:15 AM,69.1,69.1,100,29.96,10.0,ESE,4.6,-,N/A,,Clear,110,2012-10-24 06:15:00
1:35 AM,69.6,69.6,100,29.96,10.0,ESE,4.6,-,N/A,,Clear,110,2012-10-24 06:35:00
1:55 AM,69.8,69.8,100,29.96,10.0,ESE,4.6,-,N/A,,Clear,110,2012-10-24 06:55:00
2:15 AM,69.6,69.6,100,29.95,10.0,ESE,3.5,-,N/A,,Clear,110,2012-10-24 07:15:00
2:35 AM,68.9,68.9,100,29.95,7.0,Calm,Calm,-,N/A,,Clear,0,2012-10-24 07:35:00
2:55 AM,69.1,69.1,100,29.95,4.0,Calm,Calm,-,N/A,,Clear,0,2012-10-24 07:55:00
3:15 AM,68.5,68.5,100,29.95,5.0,Calm,Calm,-,N/A,,Clear,0,2012-10-24 08:15:00
3:35 AM,68.5,68.5,100,29.95,4.0,ENE,3.5,-,N/A,,Clear,60,2012-10-24 08:35:00
3:55 AM,68.0,68.0,100,29.94,1.2,ENE,3.5,-,N/A,,Mostly Cloudy,70,2012-10-24 08:55:00
4:15 AM,66.6,66.6,100,29.94,4.0,East,3.5,-,N/A,,Mostly Cloudy,80,2012-10-24 09:15:00
4:35 AM,66.7,66.7,100,29.94,5.0,East,3.5,-,N/A,,Scattered Clouds,90,2012-10-24 09:35:00
4:55 AM,66.2,66.2,100,29.94,5.0,East,3.5,-,N/A,,Clear,90,2012-10-24 09:55:00
5:15 AM,66.7,66.7,100,29.95,3.0,Calm,Calm,-,N/A,,Clear,0,2012-10-24 10:15:00
5:35 AM,67.6,67.6,100,29.95,0.8,ENE,3.5,-,N/A,,Mist,70,2012-10-24 10:35:00
5:55 AM,67.3,67.3,100,29.95,0.8,ENE,3.5,-,N/A,,Mist,70,2012-10-24 10:55:00
6:15 AM,66.9,66.9,100,29.96,2.0,East,3.5,-,N/A,,Clear,90,2012-10-24 11:15:00
6:35 AM,66.2,66.2,100,29.97,5.0,ENE,3.5,-,N/A,,Clear,70,2012-10-24 11:35:00
6:55 AM,66.6,66.6,100,29.97,3.0,ENE,3.5,-,N/A,,Clear,70,2012-10-24 11:55:00
7:15 AM,66.2,66.2,100,29.97,1.8,East,3.5,-,N/A,,Mist,80,2012-10-24 12:15:00
7:35 AM,65.5,65.5,100,29.97,5.0,East,3.5,-,N/A,,Clear,80,2012-10-24 12:35:00
7:55 AM,66.2,66.2,100,29.97,5.0,East,3.5,-,N/A,,Clear,80,2012-10-24 12:55:00
8:15 AM,68.0,68.0,100,29.98,7.0,ENE,3.5,-,N/A,,Clear,70,2012-10-24 13:15:00
8:35 AM,70.7,70.7,100,29.99,10.0,Calm,Calm,-,N/A,,Clear,0,2012-10-24 13:35:00
8:55 AM,73.4,73.4,100,29.99,10.0,Calm,Calm,-,N/A,,Clear,0,2012-10-24 13:55:00
9:15 AM,75.6,75.6,100,30.00,10.0,East,4.6,-,N/A,,Clear,100,2012-10-24 14:15:00
9:35 AM,78.3,78.1,99,30.00,10.0,ESE,4.6,-,N/A,,Clear,120,2012-10-24 14:35:00
9:55 AM,81.1,77.7,89,30.00,10.0,SE,8.1,-,N/A,,Clear,140,2012-10-24 14:55:00
10:15 AM,82.9,73.2,72,30.00,10.0,SSE,8.1,-,N/A,,Clear,150,2012-10-24 15:15:00
10:35 AM,84.7,72.0,65,30.00,10.0,ESE,6.9,-,N/A,,Scattered Clouds,120,2012-10-24 15:35:00
10:55 AM,86.2,70.3,59,30.00,10.0,SE,11.5,-,N/A,,Scattered Clouds,130,2012-10-24 15:55:00
11:15 AM,87.1,67.8,53,30.00,10.0,ESE,12.7,-,N/A,,Clear,120,2012-10-24 16:15:00
11:35 AM,86.9,66.7,51,29.99,10.0,SE,8.1,-,N/A,,Scattered Clouds,140,2012-10-24 16:35:00
11:55 AM,87.3,67.1,51,29.99,7.0,SSE,9.2,-,N/A,,Scattered Clouds,160,2012-10-24 16:55:00
12:15 PM,88.5,66.9,49,29.98,10.0,SE,11.5,16.1,N/A,,Scattered Clouds,140,2012-10-24 17:15:00
12:35 PM,89.1,66.9,48,29.98,7.0,SSE,11.5,16.1,N/A,,Scattered Clouds,160,2012-10-24 17:35:00
12:55 PM,89.8,66.9,47,29.97,10.0,SSE,8.1,-,N/A,,Scattered Clouds,150,2012-10-24 17:55:00
1:15 PM,89.8,66.9,47,29.96,7.0,SE,6.9,-,N/A,,Clear,130,2012-10-24 18:15:00
1:35 PM,89.1,66.9,48,29.95,7.0,SSE,8.1,-,N/A,,Clear,150,2012-10-24 18:35:00
1:55 PM,89.1,67.3,48,29.94,10.0,ESE,9.2,-,N/A,,Clear,110,2012-10-24 18:55:00
2:15 PM,90.5,66.9,46,29.93,7.0,SSE,12.7,17.3,N/A,,Scattered Clouds,160,2012-10-24 19:15:00
2:35 PM,90.5,66.2,45,29.92,4.0,SSE,9.2,-,N/A,,Haze,150,2012-10-24 19:35:00
2:55 PM,89.8,65.7,45,29.92,10.0,ESE,9.2,-,N/A,,Clear,120,2012-10-24 19:55:00
3:15 PM,88.3,66.6,48,29.91,5.0,ESE,10.4,16.1,N/A,,Haze,120,2012-10-24 20:15:00
3:35 PM,87.8,68.0,52,29.91,10.0,SE,8.1,-,N/A,,Scattered Clouds,140,2012-10-24 20:35:00
3:55 PM,86.2,68.5,55,29.90,10.0,SSE,10.4,16.1,N/A,,Scattered Clouds,150,2012-10-24 20:55:00
4:15 PM,86.5,69.1,56,29.90,10.0,ESE,11.5,16.1,N/A,,Mostly Cloudy,120,2012-10-24 21:15:00
4:35 PM,86.4,69.4,57,29.90,10.0,ESE,11.5,-,N/A,,Scattered Clouds,120,2012-10-24 21:35:00
4:55 PM,83.7,69.6,62,29.90,10.0,ESE,10.4,-,N/A,,Clear,120,2012-10-24 21:55:00
5:15 PM,83.8,70.2,63,29.90,10.0,ESE,12.7,-,N/A,,Clear,110,2012-10-24 22:15:00
5:35 PM,83.3,70.3,65,29.90,10.0,ESE,8.1,-,N/A,,Clear,120,2012-10-24 22:35:00
5:55 PM,83.1,70.5,66,29.91,10.0,ESE,10.4,-,N/A,,Clear,110,2012-10-24 22:55:00
6:15 PM,81.5,71.4,71,29.90,10.0,SE,6.9,-,N/A,,Clear,130,2012-10-24 23:15:00
6:35 PM,78.8,71.6,78,29.91,10.0,ESE,9.2,-,N/A,,Clear,120,2012-10-24 23:35:00
6:55 PM,79.2,72.5,80,29.90,10.0,ESE,6.9,-,N/A,,Clear,110,2012-10-24 23:55:00
7:15 PM,77.7,72.9,85,29.90,10.0,ESE,5.8,-,N/A,,Clear,110,2012-10-25 00:15:00
7:35 PM,76.6,75.4,96,29.91,10.0,ESE,4.6,-,N/A,,Clear,110,2012-10-25 00:35:00
7:55 PM,76.3,76.3,100,29.92,10.0,ESE,4.6,-,N/A,,Clear,110,2012-10-25 00:55:00
8:15 PM,75.6,75.6,100,29.92,10.0,ESE,3.5,-,N/A,,Clear,110,2012-10-25 01:15:00
8:35 PM,74.8,74.8,100,29.92,10.0,East,4.6,-,N/A,,Clear,100,2012-10-25 01:35:00
8:55 PM,73.9,73.9,100,29.92,10.0,East,4.6,-,N/A,,Clear,100,2012-10-25 01:55:00
9:15 PM,73.2,73.2,100,29.92,10.0,East,4.6,-,N/A,,Clear,100,2012-10-25 02:15:00
9:35 PM,73.2,73.2,100,29.92,10.0,East,4.6,-,N/A,,Clear,90,2012-10-25 02:35:00
9:55 PM,72.9,72.9,100,29.92,10.0,ESE,4.6,-,N/A,,Clear,110,2012-10-25 02:55:00
10:15 PM,71.6,71.6,100,29.92,10.0,East,4.6,-,N/A,,Scattered Clouds,100,2012-10-25 03:15:00
10:35 PM,73.2,73.2,100,29.92,10.0,East,4.6,-,N/A,,Scattered Clouds,100,2012-10-25 03:35:00
10:55 PM,73.6,73.6,100,29.92,10.0,ESE,4.6,-,N/A,,Scattered Clouds,110,2012-10-25 03:55:00
11:15 PM,73.9,73.9,100,29.91,10.0,East,3.5,-,N/A,,Mostly Cloudy,100,2012-10-25 04:15:00
11:35 PM,71.6,71.6,100,29.91,10.0,ESE,4.6,-,N/A,,Scattered Clouds,110,2012-10-25 04:35:00
11:55 PM,73.2,73.2,100,29.90,7.0,ESE,3.5,-,N/A,,Clear,110,2012-10-25 04:55:00